Time,TemperatureF,DewpointF,PressureIn,WindDirection,WindDirectionDegrees,WindSpeedMPH,WindSpeedGustMPH,Humidity,HourlyPrecipIn,Conditions,Clouds,dailyrainin,SoftwareType,DateUTC
2013-01-20 00:08:00,25.3,13.0,30.14,West,271,10.0,19.0,60,0.00,,,0.00,weatherlink.com 1.10,2013-01-20 06:08:00,
2013-01-20 00:23:00,24.1,12.0,30.15,NW,326,3.0,19.0,61,0.00,,,0.00,weatherlink.com 1.10,2013-01-20 06:23:00,
2013-01-20 00:39:00,22.9,12.0,30.16,NW,325,10.0,19.0,62,0.00,,,0.00,weatherlink.com 1.10,2013-01-20 06:39:00,
2013-01-20 00:54:00,22.5,11.0,30.17,WNW,302,6.0,20.0,61,0.00,,,0.00,weatherlink.com 1.10,2013-01-20 06:54:00,
2013-01-20 01:09:00,21.9,11.0,30.18,NW,318,6.0,16.0,63,0.00,,,0.00,weatherlink.com 1.10,2013-01-20 07:09:00,
2013-01-20 01:24:00,21.1,11.0,30.18,NW,325,12.0,13.0,65,0.00,,,0.00,weatherlink.com 1.10,2013-01-20 07:24:00,
2013-01-20 01:39:00,20.5,10.0,30.19,WNW,300,9.0,14.0,64,0.00,,,0.00,weatherlink.com 1.10,2013-01-20 07:39:00,
2013-01-20 01:54:00,20.1,10.0,30.20,NW,319,8.0,18.0,66,0.00,,,0.00,weatherlink.com 1.10,2013-01-20 07:54:00,
2013-01-20 02:09:00,19.4,9.0,30.21,NNW,335,8.0,18.0,65,0.00,,,0.00,weatherlink.com 1.10,2013-01-20 08:09:00,
2013-01-20 02:24:00,19.2,10.0,30.22,NW,321,6.0,16.0,66,0.00,,,0.00,weatherlink.com 1.10,2013-01-20 08:24:00,
2013-01-20 02:39:00,18.9,10.0,30.23,WNW,284,13.0,19.0,69,0.00,,,0.00,weatherlink.com 1.10,2013-01-20 08:39:00,
2013-01-20 02:54:00,18.2,9.0,30.24,NW,310,12.0,20.0,67,0.00,,,0.00,weatherlink.com 1.10,2013-01-20 08:54:00,
2013-01-20 03:09:00,17.9,9.0,30.25,WNW,287,8.0,18.0,68,0.00,,,0.00,weatherlink.com 1.10,2013-01-20 09:09:00,
2013-01-20 03:24:00,17.4,9.0,30.26,West,268,5.0,17.0,70,0.00,,,0.00,weatherlink.com 1.10,2013-01-20 09:24:00,
2013-01-20 03:39:00,16.6,8.0,30.27,NNW,328,9.0,17.0,70,0.00,,,0.00,weatherlink.com 1.10,2013-01-20 09:39:00,
2013-01-20 03:54:00,16.2,8.0,30.28,NNW,328,9.0,16.0,70,0.00,,,0.00,weatherlink.com 1.10,2013-01-20 09:54:00,
2013-01-20 04:09:00,15.7,8.0,30.28,NNW,335,8.0,18.0,70,0.00,,,0.00,weatherlink.com 1.10,2013-01-20 10:09:00,
2013-01-20 04:24:00,15.4,8.0,30.29,WSW,256,2.0,14.0,73,0.00,,,0.00,weatherlink.com 1.10,2013-01-20 10:24:00,
2013-01-20 04:39:00,14.9,8.0,30.29,NW,309,8.0,14.0,73,0.00,,,0.00,weatherlink.com 1.10,2013-01-20 10:39:00,
2013-01-20 04:54:00,14.6,7.0,30.29,WNW,295,6.0,13.0,72,0.00,,,0.00,weatherlink.com 1.10,2013-01-20 10:54:00,
2013-01-20 05:09:00,14.3,7.0,30.29,NW,315,4.0,11.0,73,0.00,,,0.00,weatherlink.com 1.10,2013-01-20 11:09:00,
2013-01-20 05:24:00,14.0,7.0,30.30,WNW,303,5.0,9.0,74,0.00,,,0.00,weatherlink.com 1.10,2013-01-20 11:24:00,
2013-01-20 05:39:00,13.9,7.0,30.30,WNW,300,5.0,10.0,75,0.00,,,0.00,weatherlink.com 1.10,2013-01-20 11:39:00,
2013-01-20 05:55:00,13.7,7.0,30.31,WNW,303,4.0,10.0,76,0.00,,,0.00,weatherlink.com 1.10,2013-01-20 11:55:00,
2013-01-20 06:10:00,13.6,7.0,30.32,NNW,339,3.0,13.0,74,0.00,,,0.00,weatherlink.com 1.10,2013-01-20 12:10:00,
2013-01-20 06:25:00,13.3,7.0,30.32,NNW,340,1.0,8.0,76,0.00,,,0.00,weatherlink.com 1.10,2013-01-20 12:25:00,
2013-01-20 06:40:00,13.0,7.0,30.33,NW,310,5.0,7.0,78,0.00,,,0.00,weatherlink.com 1.10,2013-01-20 12:40:00,
2013-01-20 06:55:00,12.8,7.0,30.34,NW,325,3.0,8.0,78,0.00,,,0.00,weatherlink.com 1.10,2013-01-20 12:55:00,
2013-01-20 07:10:00,12.6,7.0,30.34,WNW,294,3.0,9.0,78,0.00,,,0.00,weatherlink.com 1.10,2013-01-20 13:10:00,
2013-01-20 07:25:00,12.5,7.0,30.34,NW,311,4.0,8.0,78,0.00,,,0.00,weatherlink.com 1.10,2013-01-20 13:25:00,
2013-01-20 07:40:00,12.4,7.0,30.34,NW,309,2.0,10.0,77,0.00,,,0.00,weatherlink.com 1.10,2013-01-20 13:40:00,
2013-01-20 07:55:00,12.4,6.0,30.34,NNW,335,1.0,9.0,76,0.00,,,0.00,weatherlink.com 1.10,2013-01-20 13:55:00,
2013-01-20 08:10:00,13.0,7.0,30.34,NW,321,2.0,8.0,76,0.00,,,0.00,weatherlink.com 1.10,2013-01-20 14:10:00,
2013-01-20 08:25:00,13.0,7.0,30.35,NNW,328,3.0,10.0,76,0.00,,,0.00,weatherlink.com 1.10,2013-01-20 14:25:00,
2013-01-20 08:40:00,13.1,7.0,30.36,WNW,300,7.0,9.0,76,0.00,,,0.00,weatherlink.com 1.10,2013-01-20 14:40:00,
2013-01-20 08:55:00,13.4,7.0,30.36,WNW,302,2.0,7.0,75,0.00,,,0.00,weatherlink.com 1.10,2013-01-20 14:55:00,
2013-01-20 09:10:00,14.5,7.0,30.36,WNW,297,4.0,6.0,73,0.00,,,0.00,weatherlink.com 1.10,2013-01-20 15:10:00,
2013-01-20 09:25:00,15.2,8.0,30.36,North,4,0.0,8.0,74,0.00,,,0.00,weatherlink.com 1.10,2013-01-20 15:25:00,
2013-01-20 09:40:00,16.2,9.0,30.36,WNW,295,4.0,7.0,73,0.00,,,0.00,weatherlink.com 1.10,2013-01-20 15:40:00,
2013-01-20 09:55:00,16.2,9.0,30.37,NW,309,1.0,6.0,72,0.00,,,0.00,weatherlink.com 1.10,2013-01-20 15:55:00,
2013-01-20 10:10:00,16.7,9.0,30.37,NW,307,1.0,6.0,71,0.00,,,0.00,weatherlink.com 1.10,2013-01-20 16:10:00,
2013-01-20 10:25:00,16.8,9.0,30.38,WNW,298,6.0,7.0,71,0.00,,,0.00,weatherlink.com 1.10,2013-01-20 16:25:00,
2013-01-20 10:40:00,18.3,10.0,30.38,West,273,1.0,8.0,70,0.00,,,0.00,weatherlink.com 1.10,2013-01-20 16:40:00,
2013-01-20 10:55:00,18.3,8.0,30.38,West,277,3.0,7.0,65,0.00,,,0.00,weatherlink.com 1.10,2013-01-20 16:55:00,
2013-01-20 11:10:00,18.0,9.0,30.37,West,280,4.0,8.0,67,0.00,,,0.00,weatherlink.com 1.10,2013-01-20 17:10:00,
2013-01-20 11:25:00,17.9,9.0,30.37,WNW,286,2.0,8.0,68,0.00,,,0.00,weatherlink.com 1.10,2013-01-20 17:25:00,
2013-01-20 11:40:00,17.7,8.0,30.36,West,276,2.0,8.0,65,0.00,,,0.00,weatherlink.com 1.10,2013-01-20 17:40:00,
2013-01-20 11:55:00,18.1,8.0,30.37,West,276,5.0,9.0,65,0.00,,,0.00,weatherlink.com 1.10,2013-01-20 17:55:00,
2013-01-20 12:10:00,18.4,8.0,30.36,WNW,302,4.0,8.0,63,0.00,,,0.00,weatherlink.com 1.10,2013-01-20 18:10:00,
2013-01-20 12:25:00,18.4,8.0,30.35,NNW,335,0.0,9.0,63,0.00,,,0.00,weatherlink.com 1.10,2013-01-20 18:25:00,
2013-01-20 12:40:00,18.8,8.0,30.35,NW,304,4.0,9.0,63,0.00,,,0.00,weatherlink.com 1.10,2013-01-20 18:40:00,
2013-01-20 12:55:00,18.5,8.0,30.35,WNW,300,4.0,9.0,63,0.00,,,0.00,weatherlink.com 1.10,2013-01-20 18:55:00,
2013-01-20 13:10:00,18.5,7.0,30.34,NW,321,2.0,7.0,62,0.00,,,0.00,weatherlink.com 1.10,2013-01-20 19:10:00,
2013-01-20 13:25:00,19.0,9.0,30.34,WNW,301,0.0,7.0,64,0.00,,,0.00,weatherlink.com 1.10,2013-01-20 19:25:00,
2013-01-20 13:40:00,18.9,9.0,30.34,West,280,4.0,7.0,64,0.00,,,0.00,weatherlink.com 1.10,2013-01-20 19:40:00,
2013-01-20 13:55:00,18.8,9.0,30.35,SW,225,2.0,7.0,65,0.00,,,0.00,weatherlink.com 1.10,2013-01-20 19:55:00,
2013-01-20 14:10:00,18.9,9.0,30.35,NW,311,5.0,10.0,66,0.00,,,0.00,weatherlink.com 1.10,2013-01-20 20:10:00,
2013-01-20 14:25:00,19.0,9.0,30.35,West,278,5.0,11.0,66,0.00,,,0.00,weatherlink.com 1.10,2013-01-20 20:25:00,
2013-01-20 14:40:00,19.0,8.0,30.35,NW,316,4.0,11.0,63,0.00,,,0.00,weatherlink.com 1.10,2013-01-20 20:40:00,
2013-01-20 14:55:00,18.5,10.0,30.35,NW,307,5.0,11.0,69,0.00,,,0.00,weatherlink.com 1.10,2013-01-20 20:55:00,
2013-01-20 15:10:00,18.2,11.0,30.35,NW,321,3.0,9.0,72,0.00,,,0.00,weatherlink.com 1.10,2013-01-20 21:10:00,
2013-01-20 15:25:00,18.0,11.0,30.34,West,273,4.0,7.0,74,0.00,,,0.00,weatherlink.com 1.10,2013-01-20 21:25:00,
2013-01-20 15:40:00,17.8,11.0,30.35,WNW,287,3.0,10.0,74,0.00,,,0.00,weatherlink.com 1.10,2013-01-20 21:40:00,
2013-01-20 15:55:00,17.5,11.0,30.35,West,274,5.0,9.0,77,0.00,,,0.00,weatherlink.com 1.10,2013-01-20 21:55:00,
2013-01-20 16:10:00,17.1,12.0,30.35,NW,305,4.0,8.0,79,0.00,,,0.00,weatherlink.com 1.10,2013-01-20 22:10:00,
2013-01-20 16:25:00,17.0,12.0,30.35,WNW,285,5.0,8.0,80,0.00,,,0.00,weatherlink.com 1.10,2013-01-20 22:25:00,
2013-01-20 16:40:00,16.8,11.0,30.35,NW,315,3.0,10.0,79,0.00,,,0.00,weatherlink.com 1.10,2013-01-20 22:40:00,
2013-01-20 16:55:00,16.4,12.0,30.35,NW,314,1.0,8.0,82,0.00,,,0.00,weatherlink.com 1.10,2013-01-20 22:55:00,
2013-01-20 17:10:00,16.3,13.0,30.35,NW,325,2.0,8.0,85,0.00,,,0.00,weatherlink.com 1.10,2013-01-20 23:10:00,
2013-01-20 17:25:00,15.8,11.0,30.35,NW,304,5.0,10.0,82,0.00,,,0.00,weatherlink.com 1.10,2013-01-20 23:25:00,
2013-01-20 17:40:00,15.8,12.0,30.35,NW,314,1.0,6.0,84,0.00,,,0.00,weatherlink.com 1.10,2013-01-20 23:40:00,
2013-01-20 17:55:00,15.8,11.0,30.35,NW,307,5.0,8.0,82,0.00,,,0.00,weatherlink.com 1.10,2013-01-20 23:55:00,
2013-01-20 18:10:00,15.8,11.0,30.35,NW,318,6.0,7.0,81,0.00,,,0.00,weatherlink.com 1.10,2013-01-21 00:10:00,
2013-01-20 18:25:00,15.9,11.0,30.35,NNW,339,6.0,8.0,82,0.00,,,0.00,weatherlink.com 1.10,2013-01-21 00:25:00,
2013-01-20 18:40:00,15.9,11.0,30.36,NW,307,2.0,11.0,81,0.00,,,0.00,weatherlink.com 1.10,2013-01-21 00:40:00,
2013-01-20 18:55:00,15.9,11.0,30.35,NW,319,3.0,8.0,82,0.00,,,0.00,weatherlink.com 1.10,2013-01-21 00:55:00,
2013-01-20 19:10:00,15.8,11.0,30.35,WNW,285,1.0,6.0,82,0.00,,,0.00,weatherlink.com 1.10,2013-01-21 01:10:00,
2013-01-20 19:25:00,15.8,11.0,30.35,WNW,287,0.0,8.0,82,0.00,,,0.00,weatherlink.com 1.10,2013-01-21 01:25:00,
2013-01-20 19:41:00,15.7,11.0,30.35,WNW,300,5.0,6.0,81,0.00,,,0.00,weatherlink.com 1.10,2013-01-21 01:41:00,
2013-01-20 19:56:00,15.6,11.0,30.35,WNW,290,7.0,8.0,80,0.00,,,0.00,weatherlink.com 1.10,2013-01-21 01:56:00,
2013-01-20 20:11:00,15.4,10.0,30.35,NW,307,6.0,12.0,80,0.00,,,0.00,weatherlink.com 1.10,2013-01-21 02:11:00,
2013-01-20 20:26:00,15.4,11.0,30.35,NW,322,2.0,10.0,81,0.00,,,0.00,weatherlink.com 1.10,2013-01-21 02:26:00,
2013-01-20 20:41:00,15.4,11.0,30.34,NW,305,4.0,12.0,81,0.00,,,0.00,weatherlink.com 1.10,2013-01-21 02:41:00,
2013-01-20 20:56:00,15.3,10.0,30.34,NW,318,4.0,8.0,80,0.00,,,0.00,weatherlink.com 1.10,2013-01-21 02:56:00,
2013-01-20 21:11:00,15.2,10.0,30.34,NW,315,3.0,9.0,81,0.00,,,0.00,weatherlink.com 1.10,2013-01-21 03:11:00,
2013-01-20 21:26:00,15.4,11.0,30.34,NW,307,3.0,8.0,83,0.00,,,0.00,weatherlink.com 1.10,2013-01-21 03:26:00,
2013-01-20 21:41:00,15.2,10.0,30.34,WNW,292,4.0,11.0,81,0.00,,,0.00,weatherlink.com 1.10,2013-01-21 03:41:00,
2013-01-20 21:56:00,14.4,9.0,30.34,NW,314,1.0,11.0,80,0.00,,,0.00,weatherlink.com 1.10,2013-01-21 03:56:00,
2013-01-20 22:11:00,14.0,9.0,30.34,NW,307,3.0,12.0,80,0.00,,,0.00,weatherlink.com 1.10,2013-01-21 04:11:00,
2013-01-20 22:26:00,14.0,9.0,30.34,West,270,4.0,7.0,81,0.00,,,0.00,weatherlink.com 1.10,2013-01-21 04:26:00,
2013-01-20 22:41:00,14.3,10.0,30.34,West,274,6.0,8.0,81,0.00,,,0.00,weatherlink.com 1.10,2013-01-21 04:41:00,
2013-01-20 22:56:00,14.2,10.0,30.34,WNW,284,6.0,11.0,82,0.00,,,0.00,weatherlink.com 1.10,2013-01-21 04:56:00,
2013-01-20 23:11:00,14.3,10.0,30.34,West,271,3.0,9.0,81,0.00,,,0.00,weatherlink.com 1.10,2013-01-21 05:11:00,
2013-01-20 23:26:00,14.0,9.0,30.34,North,350,5.0,12.0,79,0.00,,,0.00,weatherlink.com 1.10,2013-01-21 05:26:00,
2013-01-20 23:41:00,13.9,9.0,30.34,West,277,6.0,11.0,82,0.00,,,0.00,weatherlink.com 1.10,2013-01-21 05:41:00,
2013-01-20 23:56:00,13.7,9.0,30.33,NNW,332,1.0,8.0,82,0.00,,,0.00,weatherlink.com 1.10,2013-01-21 05:56:00,